[Date Prev][Date Next][Thread Prev][Thread Next] - [Date Index][Thread Index][Author Index]
2 Line ISS Keps 12-27
- Subject: [sarex] 2 Line ISS Keps 12-27
- From: "Dave Larsen Ph.D." <doc@xxxxxxxxxxx>
- Date: Fri, 27 Dec 2002 03:02:10 -0800
ISS
1 25544U 98067A 02361.17730324 .00021856 00000-0 29005-3 0 5154
2 25544 51.6359 164.2212 0003753 321.6152 20.9221 15.58159752234202
----
Via the sarex mailing list at AMSAT.ORG courtesy of AMSAT-NA.
To unsubscribe, send "unsubscribe sarex" to Majordomo@amsat.org
AMSAT Home